Year,Month,Day,Hour,Minute,Value (Times are PST for temperature in C)
2009,03,31,00,00,6.90
2009,03,31,00,01,6.90
2009,03,31,00,02,6.80
2009,03,31,00,03,6.80
2009,03,31,00,04,6.80
2009,03,31,00,05,6.90
2009,03,31,00,06,6.90
2009,03,31,00,07,6.90
2009,03,31,00,08,7.00
2009,03,31,00,09,7.00
2009,03,31,00,10,7.20
2009,03,31,00,11,7.20
2009,03,31,00,12,7.30
2009,03,31,00,13,7.40
2009,03,31,00,14,7.50
2009,03,31,00,15,7.60
2009,03,31,00,16,7.60
2009,03,31,00,17,7.70
2009,03,31,00,18,7.70
2009,03,31,00,19,7.70
2009,03,31,00,20,7.80
2009,03,31,00,21,7.80
2009,03,31,00,22,7.90
2009,03,31,00,23,7.90
2009,03,31,00,24,8.00
2009,03,31,00,25,8.00
2009,03,31,00,26,8.00
2009,03,31,00,27,8.00
2009,03,31,00,28,8.00
2009,03,31,00,29,8.00
2009,03,31,00,30,8.00
2009,03,31,00,31,8.10
2009,03,31,00,32,8.10
2009,03,31,00,33,8.10
2009,03,31,00,34,8.10
2009,03,31,00,35,8.10
2009,03,31,00,36,8.10
2009,03,31,00,37,8.10
2009,03,31,00,38,8.10
2009,03,31,00,39,8.10
2009,03,31,00,40,8.00
2009,03,31,00,41,8.00
2009,03,31,00,42,8.00
2009,03,31,00,43,7.90
2009,03,31,00,44,7.90
2009,03,31,00,45,7.90
2009,03,31,00,46,7.90
2009,03,31,00,47,7.90
2009,03,31,00,48,7.90
2009,03,31,00,49,7.90
2009,03,31,00,50,7.90
2009,03,31,00,51,7.90
2009,03,31,00,52,7.90
2009,03,31,00,53,7.90
2009,03,31,00,54,7.80
2009,03,31,00,55,7.80
2009,03,31,00,56,7.80
2009,03,31,00,57,7.70
2009,03,31,00,58,7.70
2009,03,31,00,59,7.70
2009,03,31,01,00,7.70
2009,03,31,01,01,7.70
2009,03,31,01,02,7.80
2009,03,31,01,03,7.80
2009,03,31,01,04,7.80
2009,03,31,01,05,7.80
2009,03,31,01,06,7.80
2009,03,31,01,07,7.80
2009,03,31,01,08,7.80
2009,03,31,01,09,7.80
2009,03,31,01,10,7.80
2009,03,31,01,11,7.70
2009,03,31,01,12,7.70
2009,03,31,01,13,7.70
2009,03,31,01,14,7.70
2009,03,31,01,15,7.70
2009,03,31,01,16,7.70
2009,03,31,01,17,7.70
2009,03,31,01,18,7.70
2009,03,31,01,19,7.70
2009,03,31,01,20,7.70
2009,03,31,01,21,7.70
2009,03,31,01,22,7.80
2009,03,31,01,23,7.90
2009,03,31,01,24,7.90
2009,03,31,01,25,8.00
2009,03,31,01,26,8.10
2009,03,31,01,27,8.10
2009,03,31,01,28,8.20
2009,03,31,01,29,8.20
2009,03,31,01,30,8.20
2009,03,31,01,31,8.20
2009,03,31,01,32,8.20
2009,03,31,01,33,8.20
2009,03,31,01,34,8.20
2009,03,31,01,35,8.20
2009,03,31,01,36,8.20
2009,03,31,01,37,8.20
2009,03,31,01,38,8.10
2009,03,31,01,39,8.10
2009,03,31,01,40,8.10
2009,03,31,01,41,8.10
2009,03,31,01,42,8.00
2009,03,31,01,43,8.00
2009,03,31,01,44,8.00
2009,03,31,01,45,7.90
2009,03,31,01,46,7.90
2009,03,31,01,47,7.90
2009,03,31,01,48,7.90
2009,03,31,01,49,7.90
2009,03,31,01,50,7.80
2009,03,31,01,51,7.80
2009,03,31,01,52,7.80
2009,03,31,01,53,7.80
2009,03,31,01,54,7.70
2009,03,31,01,55,7.70
2009,03,31,01,56,7.70
2009,03,31,01,57,7.70
2009,03,31,01,58,7.70
2009,03,31,01,59,7.80
2009,03,31,02,00,7.80
2009,03,31,02,01,7.90
2009,03,31,02,02,7.90
2009,03,31,02,03,7.90
2009,03,31,02,04,8.00
2009,03,31,02,05,8.00
2009,03,31,02,06,8.00
2009,03,31,02,07,8.00
2009,03,31,02,08,8.00
2009,03,31,02,09,8.00
2009,03,31,02,10,7.90
2009,03,31,02,11,7.90
2009,03,31,02,12,7.90
2009,03,31,02,13,7.90
2009,03,31,02,14,7.90
2009,03,31,02,15,7.90
2009,03,31,02,16,7.90
2009,03,31,02,17,7.90
2009,03,31,02,18,7.90
2009,03,31,02,19,7.90
2009,03,31,02,20,7.80
2009,03,31,02,21,7.80
2009,03,31,02,22,7.80
2009,03,31,02,23,7.70
2009,03,31,02,24,7.70
2009,03,31,02,25,7.70
2009,03,31,02,26,7.70
2009,03,31,02,27,7.60
2009,03,31,02,28,7.60
2009,03,31,02,29,7.60
2009,03,31,02,30,7.60
2009,03,31,02,31,7.60
2009,03,31,02,32,7.60
2009,03,31,02,33,7.60
2009,03,31,02,34,7.60
2009,03,31,02,35,7.60
2009,03,31,02,36,7.60
2009,03,31,02,37,7.60
2009,03,31,02,38,7.60
2009,03,31,02,39,7.60
2009,03,31,02,40,7.70
2009,03,31,02,41,7.70
2009,03,31,02,42,7.70
2009,03,31,02,43,7.70
2009,03,31,02,44,7.80
2009,03,31,02,45,7.80
2009,03,31,02,46,7.80
2009,03,31,02,47,7.80
2009,03,31,02,48,7.80
2009,03,31,02,49,7.80
2009,03,31,02,50,7.80
2009,03,31,02,51,7.80
2009,03,31,02,52,7.80
2009,03,31,02,53,7.80
2009,03,31,02,54,7.90
2009,03,31,02,55,7.90
2009,03,31,02,56,7.90
2009,03,31,02,57,7.90
2009,03,31,02,58,7.90
2009,03,31,02,59,7.90
2009,03,31,03,00,7.90
2009,03,31,03,01,7.90
2009,03,31,03,02,7.90
2009,03,31,03,03,7.90
2009,03,31,03,04,8.00
2009,03,31,03,05,8.10
2009,03,31,03,06,8.10
2009,03,31,03,07,8.10
2009,03,31,03,08,8.10
2009,03,31,03,09,8.20
2009,03,31,03,10,8.20
2009,03,31,03,11,8.20
2009,03,31,03,12,8.20
2009,03,31,03,13,8.20
2009,03,31,03,14,8.20
2009,03,31,03,15,8.20
2009,03,31,03,16,8.20
2009,03,31,03,17,8.20
2009,03,31,03,18,8.20
2009,03,31,03,19,8.10
2009,03,31,03,20,8.10
2009,03,31,03,21,8.10
2009,03,31,03,22,8.10
2009,03,31,03,23,8.00
2009,03,31,03,24,8.00
2009,03,31,03,25,7.90
2009,03,31,03,26,7.90
2009,03,31,03,27,7.90
2009,03,31,03,28,7.90
2009,03,31,03,29,7.90
2009,03,31,03,30,7.80
2009,03,31,03,31,7.80
2009,03,31,03,32,7.80
2009,03,31,03,33,7.90
2009,03,31,03,34,7.90
2009,03,31,03,35,7.90
2009,03,31,03,36,8.00
2009,03,31,03,37,8.00
2009,03,31,03,38,8.00
2009,03,31,03,39,8.10
2009,03,31,03,40,8.10
2009,03,31,03,41,8.10
2009,03,31,03,42,8.10
2009,03,31,03,43,8.10
2009,03,31,03,44,8.00
2009,03,31,03,45,8.00
2009,03,31,03,46,8.00
2009,03,31,03,47,8.00
2009,03,31,03,48,8.00
2009,03,31,03,49,7.90
2009,03,31,03,50,7.90
2009,03,31,03,51,7.90
2009,03,31,03,52,7.90
2009,03,31,03,53,7.90
2009,03,31,03,54,7.90
2009,03,31,03,55,7.90
2009,03,31,03,56,7.90
2009,03,31,03,57,7.90
2009,03,31,03,58,7.90
2009,03,31,03,59,7.80
2009,03,31,04,00,7.80
2009,03,31,04,01,7.80
2009,03,31,04,02,7.80
2009,03,31,04,03,7.80
2009,03,31,04,04,7.80
2009,03,31,04,05,7.70
2009,03,31,04,06,7.70
2009,03,31,04,07,7.70
2009,03,31,04,08,7.70
2009,03,31,04,09,7.60
2009,03,31,04,10,7.60
2009,03,31,04,11,7.60
2009,03,31,04,12,7.50
2009,03,31,04,13,7.50
2009,03,31,04,14,7.50
2009,03,31,04,15,7.40
2009,03,31,04,16,7.40
2009,03,31,04,17,7.40
2009,03,31,04,18,7.30
2009,03,31,04,19,7.30
2009,03,31,04,20,7.30
2009,03,31,04,21,7.30
2009,03,31,04,22,7.20
2009,03,31,04,23,7.20
2009,03,31,04,24,7.20
2009,03,31,04,25,7.20
2009,03,31,04,26,7.20
2009,03,31,04,27,7.10
2009,03,31,04,28,7.10
2009,03,31,04,29,7.10
2009,03,31,04,30,7.10
2009,03,31,04,31,7.10
2009,03,31,04,32,7.10
2009,03,31,04,33,7.10
2009,03,31,04,34,7.10
2009,03,31,04,35,7.10
2009,03,31,04,36,7.10
2009,03,31,04,37,7.10
2009,03,31,04,38,7.10
2009,03,31,04,39,7.10
2009,03,31,04,40,7.10
2009,03,31,04,41,7.10
2009,03,31,04,42,7.20
2009,03,31,04,43,7.20
2009,03,31,04,44,7.20
2009,03,31,04,45,7.20
2009,03,31,04,46,7.20
2009,03,31,04,47,7.20
2009,03,31,04,48,7.20
2009,03,31,04,49,7.20
2009,03,31,04,50,7.20
2009,03,31,04,51,7.10
2009,03,31,04,52,7.10
2009,03,31,04,53,7.00
2009,03,31,04,54,7.00
2009,03,31,04,55,6.90
2009,03,31,04,56,6.90
2009,03,31,04,57,6.90
2009,03,31,04,58,6.80
2009,03,31,04,59,6.80
2009,03,31,05,00,6.80
2009,03,31,05,01,6.80
2009,03,31,05,02,6.80
2009,03,31,05,03,6.80
2009,03,31,05,04,6.80
2009,03,31,05,05,6.80
2009,03,31,05,06,6.80
2009,03,31,05,07,6.80
2009,03,31,05,08,6.80
2009,03,31,10,02,5.40
2009,03,31,10,03,5.40
2009,03,31,10,04,5.40
2009,03,31,10,05,5.50
2009,03,31,10,06,5.60
2009,03,31,10,07,5.60
2009,03,31,10,08,5.70
2009,03,31,10,09,5.70
2009,03,31,10,10,5.80
2009,03,31,10,11,5.90
2009,03,31,10,12,6.00
2009,03,31,10,13,6.00
2009,03,31,10,14,6.10
2009,03,31,10,15,6.20
2009,03,31,10,16,6.20
2009,03,31,10,17,6.30
2009,03,31,10,18,6.30
2009,03,31,10,19,6.40
2009,03,31,10,20,6.40
2009,03,31,10,21,6.50
2009,03,31,10,22,6.50
2009,03,31,10,23,6.60
2009,03,31,10,24,6.60
2009,03,31,10,25,6.60
2009,03,31,10,26,6.70
2009,03,31,10,27,6.70
2009,03,31,10,28,6.80
2009,03,31,10,29,6.80
2009,03,31,10,30,6.90
2009,03,31,10,31,6.90
2009,03,31,10,32,6.90
2009,03,31,10,33,6.90
2009,03,31,10,34,6.90
2009,03,31,10,35,6.90
2009,03,31,10,36,6.80
2009,03,31,10,37,6.80
2009,03,31,10,38,6.80
2009,03,31,10,39,6.80
2009,03,31,10,40,6.80
2009,03,31,10,41,6.80
2009,03,31,10,42,6.80
2009,03,31,10,43,6.80
2009,03,31,10,44,6.90
2009,03,31,10,45,6.90
2009,03,31,10,46,6.90
2009,03,31,10,47,6.90
2009,03,31,10,48,6.90
2009,03,31,10,49,7.00
2009,03,31,10,50,7.00
2009,03,31,10,51,7.10
2009,03,31,10,52,7.10
2009,03,31,10,53,7.10
2009,03,31,10,54,7.00
2009,03,31,10,55,7.00
2009,03,31,10,56,7.10
2009,03,31,10,57,7.10
2009,03,31,10,58,7.20
2009,03,31,10,59,7.20
2009,03,31,11,00,7.20
2009,03,31,11,01,7.30
2009,03,31,11,02,7.30
2009,03,31,11,03,7.40
2009,03,31,11,04,7.40
2009,03,31,11,05,7.50
2009,03,31,11,06,7.50
2009,03,31,11,07,7.50
2009,03,31,11,08,7.40
2009,03,31,11,09,7.40
2009,03,31,11,10,7.40
2009,03,31,11,11,7.40
2009,03,31,11,12,7.40
2009,03,31,11,13,7.40
2009,03,31,11,14,7.50
2009,03,31,11,15,7.50
2009,03,31,11,16,7.50
2009,03,31,11,17,7.60
2009,03,31,11,18,7.60
2009,03,31,11,19,7.50
2009,03,31,11,20,7.50
2009,03,31,11,21,7.40
2009,03,31,11,22,7.40
2009,03,31,11,23,7.40
2009,03,31,11,24,7.50
2009,03,31,11,25,7.50
2009,03,31,11,26,7.60
2009,03,31,11,27,7.60
2009,03,31,11,28,7.70
2009,03,31,11,29,7.70
2009,03,31,11,30,7.80
2009,03,31,11,31,7.80
2009,03,31,11,32,7.80
2009,03,31,11,33,7.90
2009,03,31,11,34,7.90
2009,03,31,11,35,7.90
2009,03,31,11,36,8.00
2009,03,31,11,37,8.00
2009,03,31,11,38,8.10
2009,03,31,11,39,8.10
2009,03,31,11,40,8.10
2009,03,31,11,41,8.00
2009,03,31,11,42,8.00
2009,03,31,11,43,7.90
2009,03,31,11,44,8.00
2009,03,31,11,45,8.00
2009,03,31,11,46,7.90
2009,03,31,11,47,7.90
2009,03,31,11,48,7.90
2009,03,31,11,49,8.00
2009,03,31,11,50,8.10
2009,03,31,11,51,8.10
2009,03,31,11,52,8.20
2009,03,31,11,53,8.20
2009,03,31,11,54,8.20
2009,03,31,11,55,8.20
2009,03,31,11,56,8.20
2009,03,31,11,57,8.20
2009,03,31,11,58,8.20
2009,03,31,11,59,8.20
2009,03,31,12,00,8.20
2009,03,31,12,01,8.20
2009,03,31,12,02,8.10
2009,03,31,12,03,8.10
2009,03,31,12,04,8.10
2009,03,31,12,05,8.10
2009,03,31,12,06,8.20
2009,03,31,12,07,8.20
2009,03,31,12,08,8.30
2009,03,31,12,09,8.30
2009,03,31,12,10,8.30
2009,03,31,12,11,8.40
2009,03,31,12,12,8.50
2009,03,31,12,13,8.60
2009,03,31,12,14,8.50
2009,03,31,12,15,8.50
2009,03,31,12,16,8.50
2009,03,31,12,17,8.40
2009,03,31,12,18,8.40
2009,03,31,12,19,8.40
2009,03,31,12,20,8.40
2009,03,31,12,21,8.50
2009,03,31,12,22,8.60
2009,03,31,12,23,8.70
2009,03,31,12,24,8.80
2009,03,31,12,25,8.80
2009,03,31,12,26,8.70
2009,03,31,12,27,8.70
2009,03,31,12,28,8.70
2009,03,31,12,29,8.70
2009,03,31,12,30,8.60
2009,03,31,12,31,8.60
2009,03,31,12,32,8.50
2009,03,31,12,33,8.40
2009,03,31,12,34,8.40
2009,03,31,12,35,8.40
2009,03,31,12,36,8.40
2009,03,31,12,37,8.50
2009,03,31,12,38,8.60
2009,03,31,12,39,8.60
2009,03,31,12,40,8.60
2009,03,31,12,41,8.70
2009,03,31,12,42,8.60
2009,03,31,12,43,8.60
2009,03,31,12,44,8.60
2009,03,31,12,45,8.50
2009,03,31,12,46,8.50
2009,03,31,12,47,8.60
2009,03,31,12,48,8.70
2009,03,31,12,49,8.70
2009,03,31,12,50,8.80
2009,03,31,12,51,8.80
2009,03,31,12,52,8.80
2009,03,31,12,53,8.80
2009,03,31,12,54,8.90
2009,03,31,12,55,9.00
2009,03,31,12,56,9.10
2009,03,31,12,57,9.10
2009,03,31,12,58,9.10
2009,03,31,12,59,9.20
2009,03,31,13,00,9.10
2009,03,31,13,01,9.10
2009,03,31,13,02,9.10
2009,03,31,13,03,9.10
2009,03,31,13,04,9.10
2009,03,31,13,05,9.20
2009,03,31,13,06,9.20
2009,03,31,13,07,9.20
2009,03,31,13,08,9.20
2009,03,31,13,09,9.10
2009,03,31,13,10,9.00
2009,03,31,13,11,8.80
2009,03,31,13,12,8.80
2009,03,31,13,13,8.90
2009,03,31,13,14,9.00
2009,03,31,13,15,9.00
2009,03,31,13,16,9.10
2009,03,31,13,17,9.10
2009,03,31,13,18,9.10
2009,03,31,13,19,9.10
2009,03,31,13,20,9.00
2009,03,31,13,21,9.00
2009,03,31,13,22,9.00
2009,03,31,13,23,9.00
2009,03,31,13,24,9.10
2009,03,31,13,25,9.20
2009,03,31,13,26,9.30
2009,03,31,13,27,9.30
2009,03,31,13,28,9.40
2009,03,31,13,29,9.40
2009,03,31,13,30,9.50
2009,03,31,13,31,9.60
2009,03,31,13,32,9.50
2009,03,31,13,33,9.40
2009,03,31,13,34,9.40
2009,03,31,13,35,9.40
2009,03,31,13,36,9.40
2009,03,31,13,37,9.40
2009,03,31,13,38,9.40
2009,03,31,13,39,9.20
2009,03,31,13,40,9.20
2009,03,31,13,41,9.20
2009,03,31,13,42,9.10
2009,03,31,13,43,9.10
2009,03,31,13,44,9.10
2009,03,31,13,45,9.20
2009,03,31,13,46,9.20
2009,03,31,13,47,9.20
2009,03,31,13,48,9.30
2009,03,31,13,49,9.30
2009,03,31,13,50,9.30
2009,03,31,13,51,9.40
2009,03,31,13,52,9.40
2009,03,31,13,53,9.50
2009,03,31,13,54,9.50
2009,03,31,13,55,9.50
2009,03,31,13,56,9.40
2009,03,31,13,57,9.30
2009,03,31,13,58,9.30
2009,03,31,13,59,9.20
2009,03,31,14,00,9.20
2009,03,31,14,01,9.20
2009,03,31,14,02,9.20
2009,03,31,14,03,9.30
2009,03,31,14,04,9.30
2009,03,31,14,05,9.30
2009,03,31,14,06,9.30
2009,03,31,14,07,9.30
2009,03,31,14,08,9.40
2009,03,31,14,09,9.50
2009,03,31,14,10,9.50
2009,03,31,14,11,9.60
2009,03,31,14,12,9.60
2009,03,31,14,13,9.60
2009,03,31,14,14,9.70
2009,03,31,14,15,9.70
2009,03,31,14,16,9.80
2009,03,31,14,17,9.90
2009,03,31,14,18,10.00
2009,03,31,14,19,10.10
2009,03,31,14,20,10.10
2009,03,31,14,21,10.10
2009,03,31,14,22,9.90
2009,03,31,14,23,9.90
2009,03,31,14,24,9.80
2009,03,31,14,25,9.80
2009,03,31,14,26,9.90
2009,03,31,14,27,9.80
2009,03,31,14,28,9.80
2009,03,31,14,29,9.90
2009,03,31,14,30,9.90
2009,03,31,14,31,10.00
2009,03,31,14,32,10.00
2009,03,31,14,33,10.00
2009,03,31,14,34,10.00
2009,03,31,14,35,10.10
2009,03,31,14,36,10.20
2009,03,31,14,37,10.10
2009,03,31,14,38,10.00
2009,03,31,14,39,10.00
2009,03,31,14,40,9.90
2009,03,31,14,41,9.90
2009,03,31,14,42,9.80
2009,03,31,14,43,9.80
2009,03,31,14,44,9.80
2009,03,31,14,45,9.70
2009,03,31,14,46,9.70
2009,03,31,14,47,9.70
2009,03,31,14,48,9.60
2009,03,31,14,49,9.60
2009,03,31,14,50,9.70
2009,03,31,14,51,9.80
2009,03,31,14,52,9.90
2009,03,31,14,53,9.90
2009,03,31,14,54,9.90
2009,03,31,14,55,9.90
2009,03,31,14,56,9.90
2009,03,31,14,57,9.90
2009,03,31,14,58,9.90
2009,03,31,14,59,9.90
2009,03,31,15,00,9.90
2009,03,31,15,01,9.80
2009,03,31,15,02,9.70
2009,03,31,15,03,9.70
2009,03,31,15,04,9.70
2009,03,31,15,05,9.70
2009,03,31,15,06,9.70
2009,03,31,15,07,9.60
2009,03,31,15,08,9.60
2009,03,31,15,09,9.60
2009,03,31,15,10,9.50
2009,03,31,15,11,9.50
2009,03,31,15,12,9.60
2009,03,31,15,13,9.50
2009,03,31,15,14,9.60
2009,03,31,15,15,9.60
2009,03,31,15,16,9.60
2009,03,31,15,17,9.60
2009,03,31,15,18,9.60
2009,03,31,15,19,9.60
2009,03,31,15,20,9.70
2009,03,31,15,21,9.70
2009,03,31,15,22,9.70
2009,03,31,15,23,9.80
2009,03,31,15,24,9.90
2009,03,31,15,25,9.90
2009,03,31,15,26,9.80
2009,03,31,15,27,9.80
2009,03,31,15,28,9.80
2009,03,31,15,29,9.70
2009,03,31,15,30,9.70
2009,03,31,15,31,9.70
2009,03,31,15,32,9.60
2009,03,31,15,33,9.60
2009,03,31,15,34,9.60
2009,03,31,15,35,9.60
2009,03,31,15,36,9.60
2009,03,31,15,37,9.60
2009,03,31,15,38,9.60
2009,03,31,15,39,9.60
2009,03,31,15,40,9.60
2009,03,31,15,41,9.60
2009,03,31,15,42,9.60
2009,03,31,15,43,9.60
2009,03,31,15,44,9.60
2009,03,31,15,45,9.60
2009,03,31,15,46,9.60
2009,03,31,15,47,9.60
2009,03,31,15,48,9.60
2009,03,31,15,49,9.50
2009,03,31,15,50,9.50
2009,03,31,15,51,9.50
2009,03,31,15,52,9.50
2009,03,31,15,53,9.60
2009,03,31,15,54,9.60
2009,03,31,15,55,9.70
2009,03,31,15,56,9.60
2009,03,31,15,57,9.50
2009,03,31,15,58,9.40
2009,03,31,15,59,9.50
2009,03,31,16,00,9.40
2009,03,31,16,01,9.50
2009,03,31,16,02,9.40
2009,03,31,16,03,9.30
2009,03,31,16,04,9.20
2009,03,31,16,05,9.20
2009,03,31,16,06,9.20
2009,03,31,16,07,9.20
2009,03,31,16,08,9.30
2009,03,31,16,09,9.30
2009,03,31,16,10,9.30
2009,03,31,16,11,9.30
2009,03,31,16,12,9.30
2009,03,31,16,13,9.30
2009,03,31,16,14,9.40
2009,03,31,16,15,9.30
2009,03,31,16,16,9.30
2009,03,31,16,17,9.20
2009,03,31,16,18,9.20
2009,03,31,16,19,9.10
2009,03,31,16,20,9.10
2009,03,31,16,21,9.10
2009,03,31,16,22,9.10
2009,03,31,16,23,9.00
2009,03,31,16,24,8.90
2009,03,31,16,25,8.90
2009,03,31,16,26,8.90
2009,03,31,16,27,8.90
2009,03,31,16,28,9.00
2009,03,31,16,29,8.90
2009,03,31,16,30,8.90
2009,03,31,16,31,8.90
2009,03,31,16,32,8.90
2009,03,31,16,33,8.80
2009,03,31,16,34,8.80
2009,03,31,16,35,8.90
2009,03,31,16,36,8.90
2009,03,31,16,37,8.90
2009,03,31,16,38,8.80
2009,03,31,16,39,8.80
2009,03,31,16,40,8.80
2009,03,31,16,41,8.80
2009,03,31,16,42,8.80
2009,03,31,16,43,8.80
2009,03,31,16,44,8.80
2009,03,31,16,45,8.90
2009,03,31,16,46,8.90
2009,03,31,16,47,8.90
2009,03,31,16,48,8.90
2009,03,31,16,49,8.80
2009,03,31,16,50,8.80
2009,03,31,16,51,8.80
2009,03,31,16,52,8.70
2009,03,31,16,53,8.80
2009,03,31,16,54,8.80
2009,03,31,16,55,8.80
2009,03,31,16,56,8.80
2009,03,31,16,57,8.80
2009,03,31,16,58,8.70
2009,03,31,16,59,8.70
2009,03,31,17,00,8.70
2009,03,31,17,01,8.70
2009,03,31,17,02,8.70
2009,03,31,17,03,8.70
2009,03,31,17,04,8.60
2009,03,31,17,05,8.60
2009,03,31,17,06,8.60
2009,03,31,17,07,8.60
2009,03,31,17,08,8.70
2009,03,31,17,09,8.70
2009,03,31,17,10,8.70
2009,03,31,17,11,8.70
2009,03,31,17,12,8.70
2009,03,31,17,13,8.70
2009,03,31,17,14,8.70
2009,03,31,17,15,8.70
2009,03,31,17,16,8.70
2009,03,31,17,17,8.70
2009,03,31,17,18,8.70
2009,03,31,17,19,8.60
2009,03,31,17,20,8.50
2009,03,31,17,21,8.40
2009,03,31,17,22,8.40
2009,03,31,17,23,8.30
2009,03,31,17,24,8.30
2009,03,31,17,25,8.30
2009,03,31,17,26,8.30
2009,03,31,17,27,8.30
2009,03,31,17,28,8.30
2009,03,31,17,29,8.40
2009,03,31,17,30,8.40
2009,03,31,17,31,8.50
2009,03,31,17,32,8.50
2009,03,31,17,33,8.50
2009,03,31,17,34,8.50
2009,03,31,17,35,8.60
2009,03,31,17,36,8.50
2009,03,31,17,37,8.50
2009,03,31,17,38,8.40
2009,03,31,17,39,8.40
2009,03,31,17,40,8.40
2009,03,31,17,41,8.40
2009,03,31,17,42,8.40
2009,03,31,17,43,8.40
2009,03,31,17,44,8.50
2009,03,31,17,45,8.40
2009,03,31,17,46,8.40
2009,03,31,17,47,8.40
2009,03,31,17,48,8.40
2009,03,31,17,49,8.30
2009,03,31,17,50,8.30
2009,03,31,17,51,8.30
2009,03,31,17,52,8.40
2009,03,31,17,53,8.40
2009,03,31,17,54,8.40
2009,03,31,17,55,8.40
2009,03,31,17,56,8.40
2009,03,31,17,57,8.40
2009,03,31,17,58,8.40
2009,03,31,17,59,8.30
2009,03,31,18,00,8.30
2009,03,31,18,01,8.20
2009,03,31,18,02,8.20
2009,03,31,18,03,8.10
2009,03,31,18,04,8.10
2009,03,31,18,05,8.00
2009,03,31,18,06,7.90
2009,03,31,18,07,7.90
2009,03,31,18,08,7.90
2009,03,31,18,09,7.80
2009,03,31,18,10,7.80
2009,03,31,18,11,7.80
2009,03,31,18,12,7.80
2009,03,31,18,13,7.80
2009,03,31,18,14,7.80
2009,03,31,18,15,7.80
2009,03,31,18,16,7.80
2009,03,31,18,17,7.80
2009,03,31,18,18,7.80
2009,03,31,18,19,7.80
2009,03,31,18,20,7.70
2009,03,31,18,21,7.70
2009,03,31,18,22,7.60
2009,03,31,18,23,7.60
2009,03,31,18,24,7.50
2009,03,31,18,25,7.50
2009,03,31,18,26,7.50
2009,03,31,18,27,7.50
2009,03,31,18,28,7.40
2009,03,31,18,29,7.40
2009,03,31,18,30,7.40
2009,03,31,18,31,7.30
2009,03,31,18,32,7.30
2009,03,31,18,33,7.30
2009,03,31,18,34,7.30
2009,03,31,18,35,7.20
2009,03,31,18,36,7.20
2009,03,31,18,37,7.20
2009,03,31,18,38,7.20
2009,03,31,18,39,7.20
2009,03,31,18,40,7.20
2009,03,31,18,41,7.20
2009,03,31,18,42,7.20
2009,03,31,18,43,7.20
2009,03,31,18,44,7.20
2009,03,31,18,45,7.20
2009,03,31,18,46,7.20
2009,03,31,18,47,7.20
2009,03,31,18,48,7.10
2009,03,31,18,49,7.10
2009,03,31,18,50,7.10
2009,03,31,18,51,7.10
2009,03,31,18,52,7.10
2009,03,31,18,53,7.10
2009,03,31,18,54,7.10
2009,03,31,18,55,7.00
2009,03,31,18,56,7.00
2009,03,31,18,57,7.00
2009,03,31,18,58,7.00
2009,03,31,18,59,7.00
2009,03,31,19,00,7.00
2009,03,31,19,01,6.90
2009,03,31,19,02,6.90
2009,03,31,19,03,6.90
2009,03,31,19,04,6.90
2009,03,31,19,05,6.90
2009,03,31,19,06,6.90
2009,03,31,19,07,6.90
2009,03,31,19,08,6.90
2009,03,31,19,09,6.90
2009,03,31,19,10,6.90
2009,03,31,19,11,6.90
2009,03,31,19,12,6.80
2009,03,31,19,13,6.80
2009,03,31,19,14,6.80
2009,03,31,19,15,6.80
2009,03,31,19,16,6.80
2009,03,31,19,17,6.80
2009,03,31,19,18,6.80
2009,03,31,19,19,6.80
2009,03,31,19,20,6.70
2009,03,31,19,21,6.70
2009,03,31,19,22,6.70
2009,03,31,19,23,6.70
2009,03,31,19,24,6.70
2009,03,31,19,25,6.70
2009,03,31,19,26,6.70
2009,03,31,19,27,6.60
2009,03,31,19,28,6.60
2009,03,31,19,29,6.60
2009,03,31,19,30,6.60
2009,03,31,19,31,6.60
2009,03,31,19,32,6.60
2009,03,31,19,33,6.60
2009,03,31,19,34,6.60
2009,03,31,19,35,6.60
2009,03,31,19,36,6.50
2009,03,31,19,37,6.50
2009,03,31,19,38,6.50
2009,03,31,19,39,6.50
2009,03,31,19,40,6.50
2009,03,31,19,41,6.50
2009,03,31,19,42,6.40
2009,03,31,19,43,6.40
2009,03,31,19,44,6.40
2009,03,31,19,45,6.40
2009,03,31,19,46,6.40
2009,03,31,19,47,6.40
2009,03,31,19,48,6.40
2009,03,31,19,49,6.40
2009,03,31,19,50,6.40
2009,03,31,19,51,6.30
2009,03,31,19,52,6.30
2009,03,31,19,53,6.30
2009,03,31,19,54,6.30
2009,03,31,19,55,6.30
2009,03,31,19,56,6.30
2009,03,31,19,57,6.20
2009,03,31,19,58,6.20
2009,03,31,19,59,6.20
2009,03,31,20,00,6.20
2009,03,31,20,01,6.20
2009,03,31,20,02,6.10
2009,03,31,20,03,6.10
2009,03,31,20,04,6.10
2009,03,31,20,05,6.10
2009,03,31,20,06,6.10
2009,03,31,20,07,6.10
2009,03,31,20,08,6.10
2009,03,31,20,09,6.10
2009,03,31,20,10,6.00
2009,03,31,20,11,6.00
2009,03,31,20,12,6.00
2009,03,31,20,13,6.00
2009,03,31,20,14,5.90
2009,03,31,20,15,5.90
2009,03,31,20,16,5.90
2009,03,31,20,17,5.90
2009,03,31,20,18,5.90
2009,03,31,20,19,5.90
2009,03,31,20,20,5.90
2009,03,31,20,21,5.90
2009,03,31,20,22,5.90
2009,03,31,20,23,5.80
2009,03,31,20,24,5.80
2009,03,31,20,25,5.80
2009,03,31,20,26,5.80
2009,03,31,20,27,5.80
2009,03,31,20,28,5.80
2009,03,31,20,29,5.80
2009,03,31,20,30,5.80
2009,03,31,20,31,5.80
2009,03,31,20,32,5.80
2009,03,31,20,33,5.80
2009,03,31,20,34,5.80
2009,03,31,20,35,5.80
2009,03,31,20,36,5.80
2009,03,31,20,37,5.80
2009,03,31,20,38,5.80
2009,03,31,20,39,5.80
2009,03,31,20,40,5.80
2009,03,31,20,41,5.70
2009,03,31,20,42,5.70
2009,03,31,20,43,5.70
2009,03,31,20,44,5.70
2009,03,31,20,45,5.70
2009,03,31,20,46,5.70
2009,03,31,20,47,5.70
2009,03,31,20,48,5.70
2009,03,31,20,49,5.70
2009,03,31,20,50,5.70
2009,03,31,20,51,5.70
2009,03,31,20,52,5.70
2009,03,31,20,53,5.70
2009,03,31,20,54,5.70
2009,03,31,20,55,5.70
2009,03,31,20,56,5.60
2009,03,31,20,57,5.60
2009,03,31,20,58,5.60
2009,03,31,20,59,5.60
2009,03,31,21,00,5.60
2009,03,31,21,01,5.60
2009,03,31,21,02,5.50
2009,03,31,21,03,5.50
2009,03,31,21,04,5.60
2009,03,31,21,05,5.60
2009,03,31,21,06,5.50
2009,03,31,21,07,5.50
2009,03,31,21,08,5.50
2009,03,31,21,09,5.50
2009,03,31,21,10,5.50
2009,03,31,21,11,5.50
2009,03,31,21,12,5.50
2009,03,31,21,13,5.50
2009,03,31,21,14,5.50
2009,03,31,21,15,5.50
2009,03,31,21,16,5.50
2009,03,31,21,17,5.50
2009,03,31,21,18,5.60
2009,03,31,21,19,5.60
2009,03,31,21,20,5.60
2009,03,31,21,21,5.50
2009,03,31,21,22,5.50
2009,03,31,21,23,5.50
2009,03,31,21,24,5.50
2009,03,31,21,25,5.40
2009,03,31,21,26,5.40
2009,03,31,21,27,5.40
2009,03,31,21,28,5.40
2009,03,31,21,29,5.40
2009,03,31,21,30,5.40
2009,03,31,21,31,5.40
2009,03,31,21,32,5.40
2009,03,31,21,33,5.40
2009,03,31,21,34,5.40
2009,03,31,21,35,5.40
2009,03,31,21,36,5.40
2009,03,31,21,37,5.40
2009,03,31,21,38,5.40
2009,03,31,21,39,5.40
2009,03,31,21,40,5.40
2009,03,31,21,41,5.30
2009,03,31,21,42,5.30
2009,03,31,21,43,5.30
2009,03,31,21,44,5.30
2009,03,31,21,45,5.30
2009,03,31,21,46,5.30
2009,03,31,21,47,5.30
2009,03,31,21,48,5.30
2009,03,31,21,49,5.30
2009,03,31,21,50,5.30
2009,03,31,21,51,5.30
2009,03,31,21,52,5.30
2009,03,31,21,53,5.30
2009,03,31,21,54,5.30
2009,03,31,21,55,5.20
2009,03,31,21,56,5.20
2009,03,31,21,57,5.20
2009,03,31,21,58,5.20
2009,03,31,21,59,5.20
2009,03,31,22,00,5.20
2009,03,31,22,01,5.20
2009,03,31,22,02,5.20
2009,03,31,22,03,5.20
2009,03,31,22,04,5.20
2009,03,31,22,05,5.20
2009,03,31,22,06,5.20
2009,03,31,22,07,5.20
2009,03,31,22,08,5.20
2009,03,31,22,09,5.20
2009,03,31,22,10,5.20
2009,03,31,22,11,5.20
2009,03,31,22,12,5.20
2009,03,31,22,13,5.20
2009,03,31,22,14,5.20
2009,03,31,22,15,5.20
2009,03,31,22,16,5.20
2009,03,31,22,17,5.20
2009,03,31,22,18,5.20
2009,03,31,22,19,5.20
2009,03,31,22,20,5.20
2009,03,31,22,21,5.30
2009,03,31,22,22,5.30
2009,03,31,22,23,5.30
2009,03,31,22,24,5.20
2009,03,31,22,25,5.20
2009,03,31,22,26,5.20
2009,03,31,22,27,5.20
2009,03,31,22,28,5.20
2009,03,31,22,29,5.20
2009,03,31,22,30,5.20
2009,03,31,22,31,5.20
2009,03,31,22,32,5.20
2009,03,31,22,33,5.20
2009,03,31,22,34,5.10
2009,03,31,22,35,5.10
2009,03,31,22,36,5.10
2009,03,31,22,37,5.10
2009,03,31,22,38,5.10
2009,03,31,22,39,5.10
2009,03,31,22,40,5.10
2009,03,31,22,41,5.10
2009,03,31,22,42,5.10
2009,03,31,22,43,5.10
2009,03,31,22,44,5.20
2009,03,31,22,45,5.20
2009,03,31,22,46,5.20
2009,03,31,22,47,5.20
2009,03,31,22,48,5.20
2009,03,31,22,49,5.20
2009,03,31,22,50,5.20
2009,03,31,22,51,5.20
2009,03,31,22,52,5.20
2009,03,31,22,53,5.20
2009,03,31,22,54,5.20
2009,03,31,22,55,5.20
2009,03,31,22,56,5.20
2009,03,31,22,57,5.20
2009,03,31,22,58,5.20
2009,03,31,22,59,5.20